User: anonymous   Login
Location: Roanoke
(37.2710°N, 79.9420°W)
Time: 00:08:59
(UTC-04:00)
Language:

FENGYUN 3A - Orbit

View from above orbital plane
View from above orbital plane
View from above satellite
View from above satellite

Ground track
Ground track

The orbit data is extracted from the following two-line orbital elements,

1 32958U 08026A   17289.86102108  .00000008  00000-0  23064-4 0  9993
2 32958  98.4001 312.4121 0008445 290.9585  69.0705 14.19677207486597
Epoch (UTC): 16 October 2017 20:39:52
Eccentricity: 0.0008445
inclination: 98.4001°
perigee height: 820 km
apogee height: 832 km
right ascension of ascending node: 312.4121°
argument of perigee: 290.9585°
revolutions per day: 14.19677207
mean anomaly at epoch: 69.0705°
orbit number at epoch: 48659

The dashed part of the orbit path shows where the satellite is in the earth's shadow,  

DLR